www.pogodaiklimat.ru

Погода и климат >> Архив погоды >> Россия >> Ямало-Ненецкий АО >> Питляр


ПОГОДА в Питляре

  • Прогноз погоды в Питляре
  • Монитор погоды в Питляре

АРХИВ ПОГОДЫ в Питляре

Время (UTC), дата Ветер
(напр.,м/с)
 
Видим.   Явления Облачность Т
(С)
Тd
(С)
f
(%)
Тe
(С)
Тes
(С)
Комфортность P
(гПа)
Po
(гПа)
Тmin
(С)
Tmax
(С)
R
(мм)
R24
(мм)
S
(см)
18 10.02 Ю 3 20 км {снег} 10/0
[As op]
-19.5 -21.9 81 -27 -27 1014.2 1011.9
21 10.02 Ю 4 4000 м слаб. снег 10/0
[As op]
-18.2 -20.4 83 -27 -27 1013.5 1011.3
00 11.02 Ю 3 20 км {снег} 10/0
[As op]
-16.7 -18.8 84 -24 -24 1013.1 1010.9
03 11.02 ЮВ 2 20 км 10/0
[As op]
-17.1 -19.1 84 -22 -22 1012.7 1010.5 -21.1 0.2 47
06 11.02 ЮВ 2 н/о н/о -15.0 -16.9 85 -20 -20 1012.0 1009.8
09 11.02 Ю 2 10 км слаб. снег 10/0
[As trans]
-12.5 -14.2 87 -17 -17 1011.6 1009.4
12 11.02 Ю 2 н/о н/о -11.5 -13.1 88 -16 -16 1011.4 1009.2
15 11.02 Ю 3 20 км 10/0
[Ac und]
-10.1 -11.4 90 -16 -16 1011.4 1009.2 -10.1 1
18 11.02 Ю 3 20 км 10/0
[As op]
-9.3 -10.0 95 -15 -15 1011.1 1008.9
21 11.02 ЮВ 1 20 км 10/10 300 м
[St]
-9.2 -9.9 95 -12 -12 1010.5 1008.3
00 12.02 ЮЗ 2 н/о н/о -7.9 -8.3 97 -12 -12 1010.3 1008.1
03 12.02 Ю 2 10 км слаб. снег 10/0
[As op]
-8.0 -8.5 96 -13 -13 1010.1 1007.9 -10.1 0.0 48
06 12.02 ЮЗ 2 н/о н/о -8.4 -8.9 96 -13 -13 1010.5 1008.3
09 12.02 ЮЗ 2 50 км 10/0
[Ac As]
-8.0 -8.5 96 -13 -12 1011.2 1009.0
12 12.02 Ю 3 н/о н/о -8.9 -9.5 95 -15 -15 1012.3 1010.2
15 12.02 Ю 3 20 км 10/0
[Ac und]
-8.2 -8.9 95 -14 -14 1013.2 1011.1 -7.7 0.3
18 12.02 Ю 2 20 км 10/0
[Ac und]
-8.1 -8.9 94 -13 -13 1013.2 1011.0
21 12.02 ЮВ 1 20 км 10/0
[Ci sp]
-9.8 -10.4 95 -12 -12 1012.9 1010.7
00 13.02 Ю 3 20 км 10/0
[Ci sp]
-8.1 -8.9 94 -14 -14 1011.6 1009.5
03 13.02 В 2 20 км 8/0
[Ac lent Ci fib]
-11.4 -12.2 94 -16 -16 1010.7 1008.5 -11.5 48
06 13.02 Ю 3 н/о н/о -7.8 -8.8 93 -14 -14 1009.2 1007.1
09 13.02 Ю 4 50 км 10/0
[Ac lent Cs]
-6.8 -8.3 89 -14 -13 1008.6 1006.4
12 13.02 Ю 2 н/о н/о -5.8 -6.8 93 -10 -10 1008.0 1005.9
15 13.02 Ю 4 20 км 10/9 300 м
[Frnb As op]
-5.0 -6.1 92 -12 -12 1007.3 1005.2 -4.9 0.0
18 13.02 Ю 5 20 км 10/0
[As trans]
-6.2 -7.3 92 -14 -14 1007.0 1004.9
21 13.02 Ю 3 20 км 10/0
[As op]
-6.2 -7.5 90 -12 -12 1006.9 1004.8
00 14.02 Ю 4 20 км 10/0
[As op]
-6.3 -7.4 92 -13 -13 1005.6 1003.5
03 14.02 ЮВ 2 н/о н/о -5.5 -6.1 96 -10 -10 1003.5 1001.4 -6.9
06 14.02 ЮВ 3 н/о н/о -4.4 -4.8 97 -10 -10 1000.2 998.1
09 14.02 Ю 5
{10}
4000 м слаб. снег 10/9 300 м
[Frnb As op]
-4.1 -4.5 97 -11 -11 998.0 996.0
12 14.02 ЮЗ 6-10
{13}
н/о н/о -5.3 -5.6 98 -13 -13 998.8 996.7
15 14.02 ЮЗ 7-10
{12}
4000 м слаб. снег 10/9 300 м
[Frnb As op]
-5.0 -5.2 98 -14 -14 999.8 997.7 -4.0 5
18 14.02 З 6
{12}
10 км слаб. снег 10/0
[As trans]
-9.1 -10.5 90 -18 -18 1001.7 999.6
21 14.02 СЗ 3
{13}
20 км {снег, метель} 10/0
[As trans]
-17.9 -20.4 81 -25 -25 1006.2 1004.0
00 15.02 ЮЗ 1 н/о н/о -20.6 -22.6 84 -24 -24 1009.0 1006.8
03 15.02 З 1 20 км ясно -26.6 -29.2 79 -30 -30 1010.7 1008.4 -26.6 0.8 53
06 15.02 штиль 0 н/о н/о -25.5 -28.4 77 -26 -26 1011.4 1009.1 -27.7
09 15.02 штиль 0 50 км ясно -18.6 -20.7 83 -19 -18 1011.9 1009.6
12 15.02 В 2 н/о н/о -19.7 -22.0 82 -25 -25 1011.3 1009.1
15 15.02 В 2 20 км 10/0
[Ci fib]
-25.0 -27.4 80 -32 -32 опасность
обморожения
1010.8 1008.5 -16.2
18 15.02 В 2 20 км 10/0
[Ci fib]
-28.2 -31.2 75 -35 -35 опасность
обморожения
1010.0 1007.7
21 15.02 СЗ 1 20 км [диам. изморози 0 мм] 10/0
[Ci fib]
-31.6 -34.9 72 -36 -36 опасность
обморожения
1009.0 1006.7
00 16.02 В 1 20 км [диам. изморози 2 мм] ясно -33.3 -36.8 71 -38 -38 опасность
обморожения
1007.9 1005.5
03 16.02 В 2 20 км [диам. изморози 2 мм] 3/0
[Ci fib]
-33.7 -37.3 70 -42 -42 опасность
обморожения
1006.8 1004.4 -34.2 53
06 16.02 СЗ 1 н/о н/о -34.9 -38.6 69 -40 -40 опасность
обморожения
1006.5 1004.2 -36.5
09 16.02 З 1 20 км ясно -30.4 -33.7 73 -35 -34 опасность
обморожения
1005.4 1003.1
12 16.02 В 1 н/о н/о -29.1 -32.2 74 -33 -33 опасность
обморожения
1004.1 1001.8
15 16.02 Ю 1 20 км [диам. изморози 2 мм] ясно -30.2 -33.4 73 -34 -34 опасность
обморожения
1002.8 1000.5 -28.0
18 16.02 В 1 20 км ясно -30.6 -33.9 73 -35 -35 опасность
обморожения
1000.6 998.3
21 16.02 В 2 20 км ясно -29.6 -32.8 74 -37 -37 опасность
обморожения
998.9 996.6
00 17.02 Ю 2 20 км [диам. изморози 2 мм] 10/0
[Ac und]
-21.7 -24.1 81 -28 -28 997.0 994.7
03 17.02 Ю 2 4000 м слаб. снег [диам. изморози 2 мм] 10/0
[As trans]
-20.7 -23.0 82 -27 -27 995.6 993.4 -30.9 0.0 59
06 17.02 ЮВ 2 н/о н/о -22.0 -24.4 81 -28 -28 994.8 992.6
09 17.02 ЮВ 1 50 км 10/0
[Ac und]
-18.7 -20.7 84 -22 -21 993.9 991.7
12 17.02 В 1 н/о н/о -16.6 -18.3 87 -19 -19 993.0 990.8
15 17.02 ЮВ 1 20 км [диам. изморози 2 мм] 10/0
[As trans]
-16.4 -18.1 87 -19 -19 992.6 990.4 -16.3 0.0

 

Местоположение метеостанции Питляр (Ямало-Ненецкий АО, Россия): широта 65.83 долгота 65.93 высота над уровнем моря 17 м.

В архиве по умолчанию представлена погода в Питляре за последнюю неделю. Архивные данные за месяц целиком и за предыдущие месяцы, начиная с января 2011 года, Вы можете получить, выбрав интересующий диапазон дат из раскрывающегося списка и нажав кнопку "Ввод!".


*Определитесь, кто Вы:
робот инопланетянин человек

Внимание! Время в таблицах - всемирное. Для получения местного времени необходимо прибавить поправку, которая равна 5 ч.

Смотрите также архив погоды в соседних городах и на ближайших метеорологических станциях:

Погода в Мужах (Ямало-Ненецкий АО, Россия) (75 км)
Погода в Салехарде (Ямало-Ненецкий АО, Россия) (85 км)
Погода в Харпе (Ямало-Ненецкий АО, Россия) (108 км)
Погода в Полуе (Ямало-Ненецкий АО, Россия) (127 км)
Погода в Белоярске (Ямало-Ненецкий АО, Россия) (152 км)
Погода в Елецкой (Коми, Россия) (159 км)
Погода в Воркуте (Коми, Россия) (203 км)
Погода в Березово (Ханты-Мансийский АО, Россия) (217 км)
Погода в Петруни (Коми, Россия) (242 км)
Погода в Казым-Мысе (Ханты-Мансийский АО, Россия) (243 км)

Пояснения к столбцам:

Ветер - указаны скорость ветра в м/с - средняя за 10 мин, порывы в срок и между сроками (в фигурных скобках) и направление, откуда дует ветер: С - северный, СВ - северо-восточный, В - восточный, ЮВ - юго-восточный, Ю - южный, ЮЗ - юго-западный, З - западный, СЗ - северо-западный.
Видимость - горизонтальная дальность видимости в метрах или километрах. При видимости от 1 до 10 км при отсутствии осадков обычно наблюдается дымка, при ухудшении видимости до 1 км и менее - туман. В сухую погоду видимость может ухудшаться дымом, пылью или мглою.
Явления - указаны атмосферные явления, наблюдавшиеся в срок или в последний час перед сроком; фигурными скобками обозначены явления, наблюдавшиеся между сроками (за 1-3 часа до срока); квадратными скобками обозначены град или гололедные отложения с указанием их диаметра в мм.
Облачность - указаны через наклонную черту общая и нижняя облачность в баллах и высота нижней границы облаков в метрах; квадратными скобками обозначены формы облаков: Ci - перистые, Cs - перисто-слоистые, Cc - перисто-кучевые, Ac - высококучевые, As - высокослоистые, Sc - слоисто-кучевые, Ns - слоисто-дождевые, Cu - кучевые, Cb - кучево-дождевые. Подробнее классификацию облаков см. в Атласе облаков (PDF).
T - Температура воздуха - температура, измеренная на высоте 2 м над землей.
Td - Температура точки росы - температура, при понижении до которой содержащийся в воздухе водяной пар достигнет насыщения.
f - Относительная влажность воздуха - влажноcть воздуха, измеренная на высоте 2 м над землей.
Te - Эффективная температура - температура, которую ощущает одетый по сезону человек в тени. Характеристика душности погоды. При расчете учитывается влияние влажности воздуха и скорости ветра на теплоощущения человека.
Tes - Эффективная температура на солнце - температура, которую ощущает человек, с поправкой на солнечный нагрев. Характеристика знойности погоды. Зависит от высоты солнца над горизонтом, облачности и скорости ветра. Ночью, в пасмурную погоду, а также при ветре 12 м/с и более поправка равна нулю.
P - Атмосферное давление - приведенное к уровню моря атмосферное давление.
Po - Атмосферное давление - измеренное на уровне метеостанции атмосферное давление.
Tmin - Минимальная температура - минимум температуры воздуха на высоте 2 м над землей.
Tmax - Максимальная температура - максимум температуры воздуха на высоте 2 м над землей.
R - Количество осадков - Количество выпавших осадков за период времени, мм. При наведении курсора мыши на число - период времени, за который выпало указанное количество осадков.
R24 - Количество осадков - Количество выпавших осадков за 24 часа, мм.
S - Снежный покров - Высота снежного покрова, см. При наведении курсора мыши на число - состояние снежного покрова и степень покрытия местности в баллах.